When you browse on this site, cookies collect data to enhance your experience and personalize the content and advertising you see.
Visit our Privacy Policy to learn more. By continuing to use the site, you agree to this use of cookies and data.
  • In Hungary
  • List of Countries
  • For 7 days
  • Water Temperature
  • Satellite Maps
  • Weather Map
  • News
  • Weather Widgets
  • user-avatar
    Login

    Hourly Weather Oruro

    Today, 15 December, Saturday

    Time Temperature Precipitation Wind Pressure Humidity
    00:00 +10°C° 0 mm 6 mps 477 mmHg 55%
    01:00 +9°C° 0 mm 5 mps 477 mmHg 57%
    02:00 +8°C° 0 mm 4 mps 476 mmHg 59%
    03:00 +8°C° 0 mm 4 mps 476 mmHg 60%
    04:00 +8°C° 0 mm 3 mps 476 mmHg 62%
    05:00 +8°C° 0 mm 3 mps 476 mmHg 63%
    06:00 +8°C° 0 mm 3 mps 476 mmHg 58%
    07:00 +8°C° 0 mm 4 mps 477 mmHg 53%
    08:00 +10°C° 0 mm 4 mps 478 mmHg 45%
    09:00 +12°C° 0 mm 5 mps 479 mmHg 39%
    10:00 +13°C° 0 mm 5 mps 480 mmHg 34%
    11:00 +15°C° 0 mm 6 mps 481 mmHg 28%
    12:00 +16°C° 0 mm 6 mps 481 mmHg 27%
    13:00 +17°C° 0 mm 6 mps 481 mmHg 25%
    14:00 +17°C° 0 mm 6 mps 481 mmHg 23%
    15:00 +17°C° 0 mm 7 mps 480 mmHg 25%
    16:00 +17°C° 0 mm 7 mps 479 mmHg 27%
    17:00 +16°C° 0 mm 8 mps 479 mmHg 29%
    18:00 +15°C° 0 mm 8 mps 478 mmHg 37%
    19:00 +12°C° 0 mm 8 mps 478 mmHg 45%
    20:00 +10°C° 0 mm 8 mps 477 mmHg 53%
    21:00 +10°C° 0 mm 8 mps 477 mmHg 55%
    22:00 +9°C° 0 mm 7 mps 477 mmHg 58%
    23:00 +9°C° 0 mm 6 mps 478 mmHg 60%

    Tomorrow, 16 December, Sunday

    Time Temperature Precipitation Wind Pressure Humidity
    00:00 +8°C° 0 mm 5 mps 477 mmHg 61%
    01:00 +8°C° 0 mm 4 mps 477 mmHg 63%
    02:00 +9°C° 0 mm 3 mps 477 mmHg 64%
    03:00 +9°C° 0.1 mm 2 mps 477 mmHg 65%
    04:00 +8°C° 0.1 mm 2 mps 477 mmHg 65%
    05:00 +9°C° 0.1 mm 1 mps 477 mmHg 66%
    06:00 +10°C° 0.2 mm 1 mps 477 mmHg 65%
    07:00 +10°C° 0.2 mm 1 mps 478 mmHg 65%
    08:00 +9°C° 0.2 mm 2 mps 478 mmHg 64%
    09:00 +9°C° 0.5 mm 2 mps 478 mmHg 62%
    10:00 +10°C° 0.5 mm 2 mps 478 mmHg 61%
    11:00 +10°C° 0.5 mm 3 mps 479 mmHg 59%
    12:00 +11°C° 0.5 mm 3 mps 478 mmHg 56%
    13:00 +11°C° 0.5 mm 3 mps 478 mmHg 54%
    14:00 +12°C° 0.5 mm 3 mps 478 mmHg 51%
    15:00 +12°C° 0.3 mm 3 mps 477 mmHg 51%
    16:00 +12°C° 0.3 mm 3 mps 477 mmHg 51%
    17:00 +12°C° 0.3 mm 3 mps 476 mmHg 50%
    18:00 +12°C° 0 mm 3 mps 476 mmHg 54%
    19:00 +11°C° 0 mm 4 mps 476 mmHg 57%
    20:00 +10°C° 0 mm 5 mps 476 mmHg 60%
    21:00 +9°C° 0.1 mm 5 mps 476 mmHg 63%
    22:00 +8°C° 0.1 mm 5 mps 476 mmHg 65%
    23:00 +8°C° 0.1 mm 5 mps 477 mmHg 68%

    Day after tomorrow, 17 December, Monday

    Time Temperature Precipitation Wind Pressure Humidity
    00:00 +7°C° 0.3 mm 4 mps 476 mmHg 69%
    01:00 +8°C° 0.3 mm 3 mps 475 mmHg 69%
    02:00 +8°C° 0.3 mm 3 mps 475 mmHg 70%
    03:00 +8°C° 0.4 mm 3 mps 475 mmHg 71%
    04:00 +7°C° 0.4 mm 3 mps 475 mmHg 72%
    05:00 +7°C° 0.4 mm 3 mps 474 mmHg 73%
    06:00 +8°C° 0.5 mm 3 mps 475 mmHg 72%
    07:00 +8°C° 0.5 mm 3 mps 476 mmHg 70%
    08:00 +8°C° 0.5 mm 3 mps 476 mmHg 69%
    09:00 +9°C° 0.4 mm 3 mps 477 mmHg 63%
    10:00 +11°C° 0.4 mm 3 mps 478 mmHg 58%
    11:00 +12°C° 0.4 mm 3 mps 479 mmHg 53%
    12:00 +12°C° 0.4 mm 4 mps 478 mmHg 52%
    13:00 +12°C° 0.4 mm 4 mps 478 mmHg 51%
    14:00 +13°C° 0.4 mm 4 mps 477 mmHg 50%
    15:00 +13°C° 0.2 mm 4 mps 477 mmHg 50%
    16:00 +13°C° 0.2 mm 3 mps 477 mmHg 50%
    17:00 +13°C° 0.2 mm 3 mps 476 mmHg 50%
    18:00 +12°C° 0.1 mm 4 mps 476 mmHg 54%
    19:00 +11°C° 0.1 mm 4 mps 476 mmHg 59%
    20:00 +9°C° 0.1 mm 5 mps 476 mmHg 64%
    21:00 +8°C° 0.1 mm 5 mps 476 mmHg 65%
    22:00 +8°C° 0.1 mm 4 mps 476 mmHg 67%
    23:00 +7°C° 0.1 mm 4 mps 476 mmHg 69%

    18 December, Tuesday

    Time Temperature Precipitation Wind Pressure Humidity
    00:00 +7°C° 0.2 mm 4 mps 476 mmHg 70%
    01:00 +8°C° 0.2 mm 3 mps 475 mmHg 71%
    02:00 +8°C° 0.2 mm 3 mps 475 mmHg 72%
    03:00 +7°C° 0.3 mm 3 mps 475 mmHg 73%
    04:00 +7°C° 0.3 mm 3 mps 475 mmHg 75%
    05:00 +7°C° 0.3 mm 2 mps 475 mmHg 76%
    06:00 +8°C° 0.1 mm 3 mps 475 mmHg 72%
    07:00 +9°C° 0.1 mm 3 mps 476 mmHg 69%
    08:00 +9°C° 0.1 mm 3 mps 477 mmHg 65%
    09:00 +10°C° 0.1 mm 3 mps 477 mmHg 60%
    10:00 +12°C° 0.1 mm 3 mps 478 mmHg 54%
    11:00 +13°C° 0.1 mm 3 mps 479 mmHg 49%
    12:00 +13°C° 0.2 mm 3 mps 478 mmHg 48%
    13:00 +13°C° 0.2 mm 4 mps 478 mmHg 47%
    14:00 +14°C° 0.2 mm 4 mps 477 mmHg 46%
    15:00 +13°C° 0.5 mm 4 mps 477 mmHg 49%
    16:00 +13°C° 0.5 mm 5 mps 476 mmHg 52%
    17:00 +11°C° 0.5 mm 6 mps 475 mmHg 55%
    18:00 +10°C° 0.2 mm 6 mps 476 mmHg 58%
    19:00 +9°C° 0.2 mm 5 mps 476 mmHg 61%
    20:00 +9°C° 0.2 mm 5 mps 476 mmHg 65%
    21:00 +8°C° 0.1 mm 5 mps 476 mmHg 67%
    22:00 +8°C° 0.1 mm 4 mps 476 mmHg 68%
    23:00 +7°C° 0.1 mm 4 mps 476 mmHg 70%

    19 December, Wednesday

    Time Temperature Precipitation Wind Pressure Humidity
    00:00 +7°C° 0.1 mm 4 mps 476 mmHg 71%
    01:00 +8°C° 0.1 mm 3 mps 475 mmHg 71%
    02:00 +8°C° 0.1 mm 3 mps 475 mmHg 71%
    03:00 +8°C° 0.1 mm 3 mps 475 mmHg 72%
    04:00 +8°C° 0.1 mm 3 mps 475 mmHg 72%
    05:00 +8°C° 0.1 mm 3 mps 475 mmHg 73%
    06:00 +8°C° 0.1 mm 3 mps 476 mmHg 70%
    07:00 +8°C° 0.1 mm 3 mps 476 mmHg 67%
    08:00 +9°C° 0.1 mm 3 mps 477 mmHg 64%
    09:00 +10°C° 0 mm 3 mps 478 mmHg 57%
    10:00 +11°C° 0 mm 3 mps 478 mmHg 50%
    11:00 +13°C° 0 mm 3 mps 479 mmHg 44%
    12:00 +13°C° 0.1 mm 3 mps 479 mmHg 42%
    13:00 +14°C° 0.1 mm 3 mps 478 mmHg 40%
    14:00 +16°C° 0.1 mm 3 mps 478 mmHg 38%
    15:00 +16°C° 0.1 mm 2 mps 477 mmHg 38%
    16:00 +16°C° 0.1 mm 2 mps 477 mmHg 37%
    17:00 +16°C° 0.1 mm 2 mps 477 mmHg 37%
    18:00 +14°C° 0.1 mm 3 mps 476 mmHg 43%
    19:00 +13°C° 0.1 mm 4 mps 476 mmHg 49%
    20:00 +12°C° 0.1 mm 4 mps 476 mmHg 56%
    21:00 +11°C° 0 mm 4 mps 476 mmHg 59%
    22:00 +10°C° 0 mm 4 mps 476 mmHg 63%
    23:00 +9°C° 0 mm 3 mps 476 mmHg 66%

    20 December, Thursday

    Time Temperature Precipitation Wind Pressure Humidity
    00:00 +9°C° 0.1 mm 3 mps 475 mmHg 67%
    01:00 +8°C° 0.1 mm 3 mps 475 mmHg 68%
    02:00 +8°C° 0.1 mm 3 mps 474 mmHg 69%
    03:00 +8°C° 0 mm 3 mps 474 mmHg 71%
    04:00 +7°C° 0 mm 3 mps 474 mmHg 72%
    05:00 +7°C° 0 mm 3 mps 474 mmHg 74%
    06:00 +8°C° 0 mm 3 mps 475 mmHg 69%
    07:00 +8°C° 0 mm 3 mps 476 mmHg 64%
    08:00 +8°C° 0 mm 4 mps 476 mmHg 58%
    09:00 +11°C° 0 mm 4 mps 477 mmHg 51%
    10:00 +12°C° 0 mm 4 mps 478 mmHg 43%
    11:00 +14°C° 0 mm 4 mps 479 mmHg 36%
    12:00 +16°C° 0.1 mm 3 mps 479 mmHg 34%
    13:00 +17°C° 0.1 mm 3 mps 479 mmHg 32%
    14:00 +18°C° 0.1 mm 3 mps 478 mmHg 29%
    15:00 +17°C° 0.2 mm 3 mps 478 mmHg 31%
    16:00 +17°C° 0.2 mm 3 mps 477 mmHg 32%
    17:00 +17°C° 0.2 mm 3 mps 477 mmHg 34%
    18:00 +16°C° 0.1 mm 3 mps 476 mmHg 40%
    19:00 +13°C° 0.1 mm 4 mps 476 mmHg 47%
    20:00 +12°C° 0.1 mm 4 mps 476 mmHg 53%
    21:00 +11°C° 0 mm 4 mps 476 mmHg 55%
    22:00 +11°C° 0 mm 4 mps 476 mmHg 57%
    23:00 +9°C° 0 mm 5 mps 476 mmHg 60%
    Show more